This is the latest recevied weather packets stored in our database for station/object W4KAB. If no packets are shown the sender has not sent any weather packets the latest 1 day(s).
| Time | Temp. | Humidity | Pressure | Rain* | Wind** | Luminosity | Snow |
|---|---|---|---|---|---|---|---|
| 1778081289 | 18.33° C | 83% | 1015.3 hPa | 0 mm | - | 39 W/m² | - |
| 1778080986 | 18.33° C | 83% | 1015.5 hPa | 0 mm | - | 51 W/m² | - |
| 1778080685 | 17.78° C | 83% | 1015.4 hPa | 0 mm | - | 56 W/m² | - |
| 1778080078 | 17.78° C | 82% | 1014.9 hPa | 0 mm | - | 46 W/m² | - |
| 1778079472 | 17.78° C | 82% | 1014.7 hPa | 0 mm | - | 83 W/m² | - |
| 1778078866 | 17.78° C | 83% | 1014.5 hPa | 0 mm | - | 68 W/m² | - |
| 1778077656 | 17.22° C | 82% | 1015.1 hPa | 0 mm | - | 39 W/m² | - |
| 1778076447 | 16.67° C | 83% | 1014.9 hPa | 0 mm | - | 42 W/m² | - |
| 1778075234 | 17.22° C | 82% | 1015.1 hPa | 0 mm | - | 27 W/m² | - |
| 1778074021 | 17.22° C | 81% | 1014.6 hPa | 0 mm | - | 25 W/m² | - |
| 1778073718 | 17.22° C | 81% | 1014.7 hPa | 0 mm | - | 26 W/m² | - |
| 1778072204 | 17.22° C | 81% | 1015.2 hPa | 0 mm | - | 54 W/m² | - |
| 1778071599 | 17.22° C | 82% | 1015.1 hPa | 0 mm | - | 52 W/m² | - |
| 1778070994 | 16.67° C | 82% | 1014.7 hPa | 0 mm | - | 46 W/m² | - |
| 1778070389 | 16.67° C | 85% | 1015 hPa | 0 mm | - | 44 W/m² | - |
| 1778070087 | 16.11° C | 87% | 1014.6 hPa | 0 mm | - | 46 W/m² | - |
| 1778068574 | 16.11° C | 86% | 1014.7 hPa | 0 mm | - | 25 W/m² | - |
| 1778067667 | 15.56° C | 86% | 1015.3 hPa | 0 mm | - | 18 W/m² | - |
| 1778066758 | 15.56° C | 86% | 1014.9 hPa | 0 mm | - | 18 W/m² | - |
| 1778065548 | 15° C | 87% | 1014.5 hPa | 0 mm | - | 6 W/m² | - |
| 1778065245 | 15° C | 87% | 1014.5 hPa | 0 mm | - | 5 W/m² | - |
| 1778064941 | 15° C | 87% | 1014.7 hPa | 0 mm | - | 3 W/m² | - |
| 1778064034 | 15° C | 87% | 1014.6 hPa | 0 mm | - | 2 W/m² | - |
| 1778063731 | 15° C | 86% | 1014.4 hPa | 0 mm | - | 0 W/m² | - |
| 1778062217 | 15.56° C | 83% | 1013.9 hPa | 0 mm | - | 0 W/m² | - |
* Rain latest hour (hover to see other rain measurements)
** Current wind speed in m/s (hover to see current wind gust speed)